Regional Weather Roundup
Issued by NWS Cleveland, OH

Home | Current Version | Previous Version | Text Only | Print | Product List | Glossary Off
Versions: 1 2 3 4 5 6 7 8 9 10 11 12 13 14 15 16 17 18 19 20 21 22 23 24 25 26 27 28 29 30 31 32 33 34 35 36 37 38 39 40 41 42 43 44 45 46 47 48 49 50

000
ASUS41 KCLE 300300
RWRCLE
OHIO REGIONAL WEATHER ROUNDUP
NATIONAL WEATHER SERVICE WILMINGTON, OH
1100 PM EDT FRI APR 29 2016

NOTE: "FAIR" INDICATES FEW OR NO CLOUDS BELOW 12,000 FEET WITH NO
SIGNIFICANT WEATHER AND/OR OBSTRUCTIONS TO VISIBILITY.

OHZ001>008-015>018-024>027-034-035-043-044-300400-
   NORTHWEST OHIO

CITY           SKY/WX    TMP DP  RH WIND       PRES   REMARKS
DEFIANCE       CLOUDY    49  41  74 E7        30.16S
FINDLAY        MOCLDY    47  38  71 NE9       30.14F
TOLEDO EXPRESS CLOUDY    47  38  71 E6        30.16S
TOLEDO EXEC    CLOUDY    47  39  74 E8        30.18S
LIMA           CLOUDY    48  43  82 E5        30.14S
$$

OHZ009>014-019>023-028>033-038-089-300400-
   NORTHEAST OHIO

CITY           SKY/WX    TMP DP  RH WIND       PRES   REMARKS
CLE-HOPKINS    MOCLDY    44  39  82 NW3       30.21R
CLE-LAKEFRONT  CLOUDY    45  37  73 NW5       30.18R
CUY CO. ARPT   MOCLDY    43  39  87 W5        30.18R
LORAIN-ELYRIA  CLOUDY    43  37  79 NE5       30.19R
ASHTABULA      FAIR      37  36  96 W3        30.16R
AKRON-CANTON   CLOUDY    45  39  79 N6        30.15R
WOOSTER        NOT AVBL
MANSFIELD      CLOUDY    42  41  96 N8        30.16R
YOUNGSTOWN     CLOUDY    42  38  85 N5        30.15R
$$

OHZ042-051>053-060>062-070>072-077>081-300400-
  SOUTHWEST OHIO

CITY           SKY/WX    TMP DP  RH WIND       PRES   REMARKS
CINC-COVINGTON CLOUDY    60  50  69 NE8       30.09R
CINC-LUNKEN    FAIR      58  51  78 NE6       30.11R
HAMILTON       FAIR      57  50  77 NE6       30.12R
DAYTON         NOT AVBL
WRIGHT-PAT AFB CLOUDY    52  48  86 NE9       30.13R
DAYTON GENERAL FAIR      53  46  77 NE9       30.11R
WILMINGTON     FAIR      52  48  86 NE12      30.11R
$$

OHZ036-037-039>041-045>050-054>059-063>069-073>076-082>088-300400-
  CENTRAL AND SOUTHEAST OHIO

CITY           SKY/WX    TMP DP  RH WIND       PRES   REMARKS
COLUMBUS       CLOUDY    49  43  80 NE6       30.14R
OSU AIRPORT    CLOUDY    50  42  74 NE6       30.15R
BOLTON FIELD   NOT AVBL
RICKENBACK AFB NOT AVBL
NEWARK         FAIR      50  41  71 CALM      30.14R
MARION         FAIR      44  41  89 NE10      30.15S
LANCASTER      CLOUDY    52  46  80 N8        30.14R
ZANESVILLE     CLOUDY    51  43  74 N5        30.14R
NEW PHILLY     CLOUDY    47  42  83 N9        30.16R
$$




USA.gov is the U.S. government's official web portal to all federal, state and local government web resources and services.